[Date Prev][Date Next][Thread Prev][Thread Next] - [Date Index][Thread Index][Author Index]

2 Line ISS Keps 7-30



ISS
1 25544U 98067A   02211.15664253  .00021475  00000-0  27012-3 0  7103
2 25544  51.6367 197.2003 0009001  52.2328   6.6632 15.59563883210733


----
Via the sarex mailing list at AMSAT.ORG courtesy of AMSAT-NA.
To unsubscribe, send "unsubscribe sarex" to Majordomo@amsat.org



AMSAT Top AMSAT Home